www.pogodaiklimat.ru

Погода и климат >> Архив погоды >> Индонезия >> Sentani Airport


ПОГОДА в Sentani Airport

  • Прогноз погоды в Sentani Airport
  • Монитор погоды в Sentani Airport
  • Климат города

АРХИВ ПОГОДЫ в Sentani Airport

Время (UTC), дата Ветер
(напр.,м/с)
 
Видим.   Явления Облачность Т
(С)
Тd
(С)
f
(%)
Тe
(С)
Тes
(С)
Комфортность P
(гПа)
Po
(гПа)
Тmin
(С)
Tmax
(С)
R
(мм)
R24
(мм)
S
(см)
03 14.05 ЮВ 4 10 км 8/4 400 м
[Cu med, cong Ac trans Ci sp]
+31.7 +23.0 60 +42 +47 опасность
перегрева
1008.7 999.2
06 14.05 В 5 10 км 8/3 360 м
[Cb cap Ac trans Ci sp]
+32.0 +23.8 62 +43 +45 опасность
перегрева
1006.1 996.6
09 14.05 штиль 0 50 км ?/? +29.0 +24.1 75 +40 +40 очень
душно
1007.7 998.1
12 14.05 штиль 0 10 км 6/1 400 м
[Cu med, cong Ac trans Ci fib]
+26.6 +23.1 81 +36 +36 очень
душно
1010.1 1000.5 +34.3
15 14.05 штиль 0 10 км 6/1 400 м
[Cu med, cong Ac trans Ci fib]
+24.9 +22.0 84 +32 +32 очень
душно
1009.9 1000.4
18 14.05 штиль 0 10 км 6/1 300 м
[Frnb Ac trans Ci fib]
+24.1 +22.6 91 +32 +32 очень
душно
1009.2 999.6
21 14.05 штиль 0 10 км 9/6 270 м
[Frnb Ac trans Ci fib]
+24.1 +22.9 93 +32 +32 очень
душно
1010.3 1000.8
00 15.05 ЮВ 3 10 км 6/4 360 м
[Cu med, cong Ac trans Ci fib]
+28.9 +25.3 81 +42 +47 опасность
перегрева
1010.7 1001.1 +23.6
03 15.05 ЮВ 4 10 км 6/4 360 м
[Cu med, cong Ac trans Ci sp]
+32.5 +24.8 64 +46 +53 опасность
перегрева
1007.6 998.1
06 15.05 ЮВ 5 10 км 4/4 360 м
[Cu med, cong Ac trans Ci fib]
+33.2 +24.6 61 +46 +49 опасность
перегрева
1004.8 995.3
09 15.05 З 2 8000 м 6/4 400 м
[Cu med, cong Ac trans Ci fib]
+29.0 +24.1 75 +40 +40 очень
душно
1006.0 996.4
12 15.05 штиль 0 8000 м 6/4 400 м
[Cu med, cong Ac trans Ci sp]
+27.2 +24.5 85 +38 +38 очень
душно
1008.3 998.8 +35.0
15 15.05 штиль 0 8000 м 6/4 400 м
[Cu med, cong Ac trans Ci sp]
+26.0 +24.2 90 +36 +36 очень
душно
1008.6 999.0
18 15.05 штиль 0 8000 м 6/3 400 м
[Frnb Ac trans Ci sp]
+25.0 +24.0 94 +34 +34 очень
душно
1007.9 998.4
21 15.05 штиль 0 8000 м 8/4 400 м
[Cu med, cong Ac trans Ci sp]
+24.6 +23.6 94 +33 +33 очень
душно
1008.4 998.8
00 16.05 В 1 10 км 5/3 400 м
[Cu med, cong Ac trans Ci sp]
+28.0 +25.6 87 +41 +49 опасность
перегрева
1009.7 1000.2 +25.6
03 16.05 В 3 10 км 5/4 360 м
[Cu med, cong Ac trans Ci sp]
+32.7 +25.0 64 +46 +56 опасность
перегрева
1007.0 997.4
06 16.05 ЮВ 2 10 км 6/4 400 м
[Cu med, cong Ac trans Ci sp]
+32.0 +25.1 67 +46 +49 опасность
перегрева
1004.6 995.1
09 16.05 ЮВ 3 8000 м 8/4 400 м
[Cu med, cong Ac trans Ci sp]
+28.9 +24.5 77 +41 +41 опасность
перегрева
1005.9 996.4
12 16.05 штиль 0 8000 м 5/3 400 м
[Cu Sc Ci fib]
+27.2 +24.3 84 +38 +38 очень
душно
1008.0 998.4 +34.3
18 16.05 штиль 0 8000 м 8/4 400 м
[Cu Sc Ac trans Ci fib]
+25.0 +22.3 85 +33 +33 очень
душно
1007.5 998.0
21 16.05 штиль 0 8000 м 8/4 400 м
[Frnb Ac trans Ci fib]
+25.6 +23.1 86 +34 +34 очень
душно
1007.9 998.3
00 17.05 ЮВ 2 10 км 5/3 420 м
[Cu Sc Ac trans Ci fib]
+28.5 +25.3 83 +42 +48 опасность
перегрева
1008.4 998.9 +23.7
03 17.05 Ю 4 10 км 5/4 420 м
[Cu Sc Ac trans Ci fib]
+32.8 +24.3 61 +45 +53 опасность
перегрева
1005.9 996.4
09 17.05 ЮЗ 2 10 км 6/4 360 м
[Cu med, cong Ac trans Ci sp]
+29.7 +23.9 71 +41 +41 опасность
перегрева
1004.8 995.2
12 17.05 Ю 1 9000 м 9/4 400 м
[Cu med, cong Ac trans Ci sp]
+27.7 +24.5 83 +39 +39 очень
душно
1007.6 998.1 +35.2
15 17.05 ЮВ 1 7000 м слабый дождь 8/4 360 м
[Cb calv Ac trans Cs]
+26.8 +24.6 88 +38 +38 очень
душно
1007.5 997.9 0.2
18 17.05 штиль 0 9000 м 6/3 300 м
[Frnb Ac trans Ci sp]
+25.8 +23.9 89 +35 +35 очень
душно
1006.5 997.0 0.2
21 17.05 С 1 9000 м 10/4 300 м
[Frnb Ac trans Cs]
+25.0 +23.4 91 +34 +34 очень
душно
1006.9 997.3
00 18.05 ЮВ 2 10 км 9/3 300 м
[Frnb Ac As Cs]
+29.7 +24.8 75 +42 +47 опасность
перегрева
1008.3 998.7 +23.4 0.2
03 18.05 ЮВ 4 10 км 6/5 420 м
[Cu Sc Ac As Cs]
+32.7 +25.5 66 +47 +54 опасность
перегрева
1005.8 996.3
06 18.05 З 6 10 км 9/5 360 м
[Cb calv Ac As Cs]
+28.2 +24.6 81 +40 +41 очень
душно
1004.4 994.9
09 18.05 З 2 10 км 8/5 420 м
[Cu Sc Ac trans Ci fib]
+27.2 +24.1 83 +38 +38 очень
душно
1005.3 995.7
12 18.05 штиль 0 10 км 8/4 420 м
[Cu med, cong Ac trans Ci sp]
+26.2 +23.7 86 +36 +36 очень
душно
1007.9 998.3 +34.2
15 18.05 З 1 9000 м слабый дождь 9/4 420 м
[Cu med, cong Ac As Ci sp]
+25.7 +23.9 90 +35 +35 очень
душно
1007.5 997.9 0.3
18 18.05 штиль 0 10 км 8/4 420 м
[Cu med, cong Ac trans Ci sp]
+25.5 +23.7 90 +35 +35 очень
душно
1006.6 997.0 0.1
21 18.05 штиль 0 10 км 9/4 300 м
[Frnb Ac As Cs]
+25.2 +22.7 86 +33 +33 очень
душно
1007.6 998.1
00 19.05 ЮВ 2 10 км 9/3 400 м
[Cu med, cong Ac trans Ci]
+28.0 +24.0 79 +39 +44 очень
душно
1009.1 999.6 +25.1 0.4
03 19.05 ЮВ 6 7000 м осадки на расстоянии 9/5 360 м
[Cb cap Ac As Ci fib]
+29.5 +23.7 71 +40 +42 очень
душно
1006.7 997.2
06 19.05 Ю 2 10 км {дождь} 9/3 400 м
[Cu med, cong Ac As Ci fib]
+28.1 +23.7 77 +39 +41 очень
душно
1005.1 995.6 0.0
12 19.05 СЗ 1 8000 м 5/3 400 м
[Cu Sc Ac trans Ci sp]
+25.6 +22.5 83 +34 +34 очень
душно
1008.0 998.5 +31.4
15 19.05 штиль 0 8000 м 8/3 400 м
[Cu Sc Ac As Ci sp]
+25.0 +22.7 87 +33 +33 очень
душно
1008.0 998.5
18 19.05 штиль 0 8000 м 8/4 300 м
[Frnb Ac As Ci sp]
+24.2 +22.1 88 +31 +31 очень
душно
1007.5 997.9
21 19.05 штиль 0 8000 м 8/4 300 м
[Frnb Ac As Ci sp]
+24.2 +22.4 90 +32 +32 очень
душно
1008.6 999.1
00 20.05 ЮВ 3 10 км 5/3 400 м
[Cu Sc Ac trans Cs]
+28.1 +25.1 84 +41 +46 опасность
перегрева
1009.5 999.9 +25.0
03 20.05 ЮВ 4 10 км 9/4 400 м
[Cu med, cong Ac trans Cs]
+32.6 +24.4 62 +45 +49 опасность
перегрева
1006.9 997.3
06 20.05 ЮВ 3 10 км 5/1 420 м
[Cu med, cong As op Ci fib]
+33.4 +25.6 64 +48 +53 опасность
перегрева
1004.6 995.1
09 20.05 В 2 10 км 4/3 400 м
[Cu med, cong Ac trans Ci fib]
+29.3 +21.0 61 +37 +37 очень
душно
1006.0 996.8
12 20.05 СЗ 1 10 км 5/3 400 м
[Cu med, cong Ac trans Ci fib]
+26.5 +22.3 78 +35 +35 очень
душно
1009.2 1000.0 +34.2
15 20.05 штиль 0 10 км 5/3 400 м
[Cu Sc Ac trans Ci fib]
+25.3 +21.6 80 +32 +32 очень
душно
1009.1 999.9
18 20.05 штиль 0 10 км 3/1 300 м
[Cu hum Ac trans Ci fib]
+24.5 +21.6 84 +31 +31 очень
душно
1008.0 998.8
21 20.05 штиль 0 10 км 4/3 400 м
[Cu hum Ac trans Ci fib]
+23.8 +22.6 93 +31 +31 очень
душно
1009.3 1000.1
00 21.05 ЮВ 3 10 км 9/4 360 м
[Cu Sc Ac As Ci sp]
+27.4 +24.7 85 +39 +42 очень
душно
1009.6 999.6 +23.6 3

 

Местоположение метеостанции Sentani Airport (Индонезия): широта -2.58 долгота 140.52 высота над уровнем моря 99 м.

В архиве по умолчанию представлена погода в Sentani Airport за последнюю неделю. Архивные данные за месяц целиком и за предыдущие месяцы, начиная с января 2011 года, Вы можете получить, выбрав интересующий диапазон дат из раскрывающегося списка и нажав кнопку "Ввод!".


*Определитесь, кто Вы:
робот инопланетянин человек

Внимание! Время в таблицах - всемирное. Для получения местного времени необходимо прибавить поправку, которая в Sentani Airport равна 7 ч.

Смотрите также архив погоды в соседних городах и на ближайших метеорологических станциях:

Погода в Jayapura (Индонезия) (21 км)
Погода в Sarmi (Индонезия) (218 км)
Погода в Wamena (Индонезия) (241 км)
Погода в Tanah Merah (Индонезия) (392 км)
Погода в Kokonao (Индонезия) (434 км)
Погода в Serui (Индонезия) (483 км)
Погода в Enarotali (Индонезия) (484 км)
Погода в Biak (Индонезия) (514 км)
Погода в Nabire (Индонезия) (564 км)
Погода в Merauke (Индонезия) (655 км)

Пояснения к столбцам:

Ветер - указаны скорость ветра в м/с - средняя за 10 мин, порывы в срок и между сроками (в фигурных скобках) и направление, откуда дует ветер: С - северный, СВ - северо-восточный, В - восточный, ЮВ - юго-восточный, Ю - южный, ЮЗ - юго-западный, З - западный, СЗ - северо-западный.
Видимость - горизонтальная дальность видимости в метрах или километрах. При видимости от 1 до 10 км при отсутствии осадков обычно наблюдается дымка, при ухудшении видимости до 1 км и менее - туман. В сухую погоду видимость может ухудшаться дымом, пылью или мглою.
Явления - указаны атмосферные явления, наблюдавшиеся в срок или в последний час перед сроком; фигурными скобками обозначены явления, наблюдавшиеся между сроками (за 1-3 часа до срока); квадратными скобками обозначены град или гололедные отложения с указанием их диаметра в мм.
Облачность - указаны через наклонную черту общая и нижняя облачность в баллах и высота нижней границы облаков в метрах; квадратными скобками обозначены формы облаков: Ci - перистые, Cs - перисто-слоистые, Cc - перисто-кучевые, Ac - высококучевые, As - высокослоистые, Sc - слоисто-кучевые, Ns - слоисто-дождевые, Cu - кучевые, Cb - кучево-дождевые. Подробнее классификацию облаков см. в Атласе облаков (PDF).
T - Температура воздуха - температура, измеренная на высоте 2 м над землей.
Td - Температура точки росы - температура, при понижении до которой содержащийся в воздухе водяной пар достигнет насыщения.
f - Относительная влажность воздуха - влажноcть воздуха, измеренная на высоте 2 м над землей.
Te - Эффективная температура - температура, которую ощущает одетый по сезону человек в тени. Характеристика душности погоды. При расчете учитывается влияние влажности воздуха и скорости ветра на теплоощущения человека.
Tes - Эффективная температура на солнце - температура, которую ощущает человек, с поправкой на солнечный нагрев. Характеристика знойности погоды. Зависит от высоты солнца над горизонтом, облачности и скорости ветра. Ночью, в пасмурную погоду, а также при ветре 12 м/с и более поправка равна нулю.
P - Атмосферное давление - приведенное к уровню моря атмосферное давление.
Po - Атмосферное давление - измеренное на уровне метеостанции атмосферное давление.
Tmin - Минимальная температура - минимум температуры воздуха на высоте 2 м над землей.
Tmax - Максимальная температура - максимум температуры воздуха на высоте 2 м над землей.
R - Количество осадков - Количество выпавших осадков за период времени, мм. При наведении курсора мыши на число - период времени, за который выпало указанное количество осадков.
R24 - Количество осадков - Количество выпавших осадков за 24 часа, мм.
S - Снежный покров - Высота снежного покрова, см. При наведении курсора мыши на число - состояние снежного покрова и степень покрытия местности в баллах.